TimeEDT,TemperatureF,Dew PointF,Humidity,Sea Level PressureIn,VisibilityMPH,Wind Direction,Wind SpeedMPH,Gust SpeedMPH,PrecipitationIn,Events,Conditions,WindDirDegrees,DateUTC
12:53 AM,82.0,73.0,74,29.87,10.0,East,9.2,-,N/A,,Clear,100,2013-09-14 04:53:00
1:53 AM,82.0,73.9,76,29.86,10.0,East,8.1,-,N/A,,Partly Cloudy,100,2013-09-14 05:53:00
2:53 AM,82.0,73.0,74,29.85,10.0,ENE,4.6,-,N/A,,Clear,70,2013-09-14 06:53:00
3:53 AM,81.0,73.0,77,29.85,10.0,ENE,3.5,-,N/A,,Partly Cloudy,70,2013-09-14 07:53:00
4:53 AM,81.0,73.0,77,29.84,10.0,ENE,3.5,-,N/A,,Clear,60,2013-09-14 08:53:00
5:53 AM,80.1,73.0,79,29.84,10.0,East,4.6,-,N/A,,Clear,80,2013-09-14 09:53:00
6:53 AM,80.1,73.9,81,29.86,10.0,Calm,Calm,-,N/A,,Partly Cloudy,0,2013-09-14 10:53:00
7:53 AM,81.0,75.0,82,29.88,10.0,ENE,3.5,-,N/A,,Scattered Clouds,60,2013-09-14 11:53:00
8:53 AM,82.9,75.9,79,29.89,10.0,NE,4.6,-,N/A,,Scattered Clouds,50,2013-09-14 12:53:00
9:53 AM,84.0,75.0,74,29.91,10.0,East,5.8,-,N/A,,Partly Cloudy,100,2013-09-14 13:53:00
10:53 AM,87.1,75.9,69,29.92,10.0,East,9.2,-,N/A,,Partly Cloudy,100,2013-09-14 14:53:00
11:53 AM,87.1,73.9,65,29.93,10.0,East,6.9,16.1,N/A,,Scattered Clouds,80,2013-09-14 15:53:00
12:53 PM,87.1,75.9,69,29.91,10.0,East,10.4,-,N/A,,Clear,100,2013-09-14 16:53:00
1:53 PM,87.1,77.0,72,29.91,10.0,East,8.1,-,N/A,,Clear,90,2013-09-14 17:53:00
2:53 PM,84.9,73.9,69,29.91,10.0,ESE,8.1,-,N/A,,Scattered Clouds,110,2013-09-14 18:53:00
3:53 PM,84.9,75.0,72,29.89,10.0,ESE,6.9,-,N/A,,Partly Cloudy,110,2013-09-14 19:53:00
4:53 PM,86.0,75.9,72,29.89,10.0,ESE,9.2,-,N/A,,Clear,110,2013-09-14 20:53:00
5:53 PM,84.9,73.0,67,29.91,10.0,East,8.1,-,N/A,,Clear,100,2013-09-14 21:53:00
6:53 PM,84.0,73.9,72,29.91,10.0,East,6.9,-,N/A,,Clear,100,2013-09-14 22:53:00
7:53 PM,82.9,73.9,74,29.91,10.0,East,4.6,-,N/A,,Clear,80,2013-09-14 23:53:00
8:53 PM,82.9,75.0,77,29.92,10.0,East,8.1,-,N/A,,Clear,90,2013-09-15 00:53:00
9:53 PM,82.9,75.0,77,29.95,10.0,East,6.9,-,N/A,,Clear,80,2013-09-15 01:53:00
10:53 PM,82.9,75.0,77,29.96,10.0,East,9.2,-,N/A,,Partly Cloudy,100,2013-09-15 02:53:00
11:53 PM,82.9,75.9,79,29.97,10.0,East,11.5,-,N/A,,Partly Cloudy,90,2013-09-15 03:53:00